,,Stat5,,Stat1,,Stat2,,Stat3,,Stat4,,Wind1,,Wind1,
time,status,PA1M_AVG,status,PR1M_SUM,status,RH1M_AVG,status,SR1M_AVG,status,TA1M_AVG,status,W1dAve1m,status,W1sAve1m,
2002-01-06, 00:00:00,VALID,918.9,VALID,0,VALID,85.345,VALID,0,VALID,20.7832,VALID,143,VALID,2.14309,
2002-01-06, 00:01:00,VALID,918.882,VALID,0,VALID,85.5764,VALID,0.0169808,VALID,20.7673,VALID,139,VALID,1.58655,
2002-01-06, 00:02:00,VALID,918.873,VALID,0,VALID,85.7952,VALID,0,VALID,20.7385,VALID,137,VALID,1.71855,
2002-01-06, 00:03:00,VALID,918.885,VALID,0,VALID,85.8104,VALID,0,VALID,20.7099,VALID,126,VALID,2.26035,
2002-01-06, 00:04:00,VALID,918.86,VALID,0,VALID,85.6388,VALID,0.0169808,VALID,20.6965,VALID,143,VALID,1.63822,
2002-01-06, 00:05:00,VALID,918.858,VALID,0,VALID,85.7494,VALID,-0.0169808,VALID,20.6997,VALID,143,VALID,1.55409,
2002-01-06, 00:06:00,VALID,918.854,VALID,0,VALID,85.86,VALID,0.0169808,VALID,20.6898,VALID,154,VALID,1.3655,
2002-01-06, 00:07:00,VALID,918.833,VALID,0,VALID,85.916,VALID,-0.0679233,VALID,20.6854,VALID,130,VALID,1.54336,
2002-01-06, 00:08:00,VALID,918.835,VALID,0,VALID,85.9681,VALID,-0.0849042,VALID,20.6749,VALID,112,VALID,1.04205,
2002-01-06, 00:09:00,VALID,918.842,VALID,0,VALID,86.0584,VALID,-0.118866,VALID,20.6595,VALID,122,VALID,1.27539,
2002-01-06, 00:10:00,VALID,918.84,VALID,0,VALID,86.1919,VALID,-0.101885,VALID,20.656,VALID,145,VALID,2.0599,
2002-01-06, 00:11:00,VALID,918.816,VALID,0,VALID,86.2377,VALID,-0.101885,VALID,20.6725,VALID,143,VALID,1.25041,
2002-01-06, 00:12:00,VALID,918.813,VALID,0,VALID,86.3432,VALID,-0.101885,VALID,20.6856,VALID,137,VALID,1.51275,
2002-01-06, 00:13:00,VALID,918.771,VALID,0,VALID,85.9897,VALID,-0.101885,VALID,20.669,VALID,144,VALID,2.49629,
2002-01-06, 00:14:00,VALID,918.729,VALID,0,VALID,85.7252,VALID,-0.0849042,VALID,20.6878,VALID,138,VALID,1.75,
2002-01-06, 00:15:00,VALID,918.731,VALID,0,VALID,85.991,VALID,-0.118866,VALID,20.7112,VALID,150,VALID,1.82292,
2002-01-06, 00:16:00,VALID,918.702,VALID,0,VALID,86.1296,VALID,-0.101885,VALID,20.705,VALID,135,VALID,1.38775,
2002-01-06, 00:17:00,VALID,918.691,VALID,0,VALID,86.183,VALID,-0.0849042,VALID,20.659,VALID,137,VALID,1.30529,
2002-01-06, 00:18:00,VALID,918.672,VALID,0,VALID,86.1627,VALID,-0.118866,VALID,20.6595,VALID,148,VALID,1.86038,
2002-01-06, 00:19:00,VALID,918.65,VALID,0,VALID,85.9999,VALID,-0.101885,VALID,20.6593,VALID,164,VALID,2.04519,
2002-01-06, 00:20:00,VALID,918.626,VALID,0,VALID,86.1576,VALID,-0.135847,VALID,20.6725,VALID,156,VALID,1.70453,
2002-01-06, 00:21:00,VALID,918.619,VALID,0,VALID,86.4233,VALID,-0.101885,VALID,20.6558,VALID,148,VALID,1.81576,
2002-01-06, 00:22:00,VALID,918.616,VALID,0,VALID,86.6293,VALID,0,VALID,20.6254,VALID,156,VALID,1.4566,
2002-01-06, 00:23:00,VALID,918.605,VALID,0,VALID,86.8353,VALID,0.0169808,VALID,20.5893,VALID,137,VALID,0.630859,
2002-01-06, 00:24:00,VALID,918.588,VALID,0,VALID,86.9994,VALID,0,VALID,20.5707,VALID,151,VALID,0.836782,
2002-01-06, 00:25:00,VALID,918.603,VALID,0,VALID,87.0706,VALID,0,VALID,20.5486,VALID,142,VALID,1.57272,
2002-01-06, 00:26:00,VALID,918.592,VALID,0,VALID,87.0248,VALID,0,VALID,20.5252,VALID,154,VALID,1.31168,
2002-01-06, 00:27:00,VALID,918.599,VALID,0,VALID,86.9193,VALID,-0.0169808,VALID,20.5317,VALID,148,VALID,1.9255,
2002-01-06, 00:28:00,VALID,918.604,VALID,0,VALID,86.8404,VALID,-0.0169808,VALID,20.5804,VALID,162,VALID,1.42736,
2002-01-06, 00:29:00,VALID,918.605,VALID,0,VALID,86.8252,VALID,-0.0169808,VALID,20.5904,VALID,159,VALID,1.40224,
2002-01-06, 00:30:00,VALID,918.613,VALID,0,VALID,86.8264,VALID,-0.0169808,VALID,20.5767,VALID,149,VALID,1.5457,
2002-01-06, 00:31:00,VALID,918.613,VALID,0,VALID,86.9231,VALID,-0.0169808,VALID,20.5675,VALID,157,VALID,0.897436,
2002-01-06, 00:32:00,VALID,918.596,VALID,0,VALID,87.0362,VALID,-0.0339617,VALID,20.5575,VALID,149,VALID,1.00288,
2002-01-06, 00:33:00,VALID,918.597,VALID,0,VALID,87.1685,VALID,-0.0509425,VALID,20.5417,VALID,140,VALID,1.9109,
2002-01-06, 00:34:00,VALID,918.598,VALID,0,VALID,87.1774,VALID,0.0169808,VALID,20.5484,VALID,131,VALID,1.96975,
2002-01-06, 00:35:00,VALID,918.581,VALID,0,VALID,87.1609,VALID,0,VALID,20.5578,VALID,144,VALID,1.57767,
2002-01-06, 00:36:00,VALID,918.572,VALID,0,VALID,87.1659,VALID,-0.0169808,VALID,20.5685,VALID,158,VALID,1.66607,
2002-01-06, 00:37:00,VALID,918.571,VALID,0,VALID,87.0413,VALID,0,VALID,20.5503,VALID,175,VALID,1.38096,
2002-01-06, 00:38:00,VALID,918.533,VALID,0,VALID,86.9485,VALID,0,VALID,20.5901,VALID,158,VALID,1.10417,
2002-01-06, 00:39:00,VALID,918.506,VALID,0,VALID,86.8798,VALID,0,VALID,20.5955,VALID,163,VALID,1.22762,
2002-01-06, 00:40:00,VALID,918.479,VALID,0,VALID,86.787,VALID,0.0339617,VALID,20.6246,VALID,135,VALID,1.2168,
2002-01-06, 00:41:00,VALID,918.44,VALID,0,VALID,86.7361,VALID,0.0169808,VALID,20.6343,VALID,169,VALID,1.33121,
2002-01-06, 00:42:00,VALID,918.428,VALID,0,VALID,86.6866,VALID,0.0169808,VALID,20.6405,VALID,133,VALID,1.51964,
2002-01-06, 00:43:00,VALID,918.399,VALID,0,VALID,86.567,VALID,-0.0169808,VALID,20.6545,VALID,129,VALID,1.86138,
2002-01-06, 00:44:00,VALID,918.403,VALID,0,VALID,86.4144,VALID,0,VALID,20.6766,VALID,137,VALID,1.26382,
2002-01-06, 00:45:00,VALID,918.393,VALID,0,VALID,86.5429,VALID,0.0169808,VALID,20.6865,VALID,139,VALID,1.72039,
2002-01-06, 00:46:00,VALID,918.36,VALID,0,VALID,86.67,VALID,0,VALID,20.6771,VALID,127,VALID,1.45798,
2002-01-06, 00:47:00,VALID,918.339,VALID,0,VALID,86.6955,VALID,0,VALID,20.6574,VALID,118,VALID,2.4982,
2002-01-06, 00:48:00,VALID,918.306,VALID,0,VALID,86.6802,VALID,0.0339617,VALID,20.6375,VALID,120,VALID,1.86592,
2002-01-06, 00:49:00,VALID,918.277,VALID,0,VALID,86.6624,VALID,0.0169808,VALID,20.6373,VALID,137,VALID,1.64063,
2002-01-06, 00:50:00,VALID,918.256,VALID,0,VALID,86.478,VALID,0.0339617,VALID,20.6472,VALID,140,VALID,2.258,
2002-01-06, 00:51:00,VALID,918.202,VALID,0,VALID,86.4551,VALID,0.0509425,VALID,20.6666,VALID,128,VALID,1.63411,
2002-01-06, 00:52:00,VALID,918.191,VALID,0,VALID,86.5963,VALID,-0.0169808,VALID,20.6572,VALID,146,VALID,1.01055,
2002-01-06, 00:53:00,VALID,918.153,VALID,0,VALID,86.6141,VALID,0,VALID,20.6448,VALID,156,VALID,1.59876,
2002-01-06, 00:54:00,VALID,918.142,VALID,0,VALID,86.4602,VALID,0.0169808,VALID,20.6313,VALID,162,VALID,2.36621,
2002-01-06, 00:55:00,VALID,918.095,VALID,0,VALID,86.4818,VALID,0.0169808,VALID,20.6607,VALID,111,VALID,1.52734,
2002-01-06, 00:56:00,VALID,918.071,VALID,0,VALID,86.7031,VALID,0.0169808,VALID,20.6445,VALID,129,VALID,1.40748,
2002-01-06, 00:57:00,VALID,918.063,VALID,0,VALID,86.9307,VALID,0.0169808,VALID,20.5928,VALID,142,VALID,1.30089,
2002-01-06, 00:58:00,VALID,918.049,VALID,0,VALID,87.0401,VALID,0.0169808,VALID,20.5541,VALID,105,VALID,1.45273,
2002-01-06, 00:59:00,VALID,918.036,VALID,0,VALID,86.9981,VALID,0,VALID,20.5675,VALID,145,VALID,1.19965,
2002-01-06, 01:00:00,VALID,918.039,VALID,0,VALID,87.1367,VALID,0,VALID,20.5503,VALID,112,VALID,1.66955,
2002-01-06, 01:01:00,VALID,918.058,VALID,0,VALID,87.2181,VALID,0.0169808,VALID,20.5349,VALID,145,VALID,1.50041,
2002-01-06, 01:02:00,VALID,918.085,VALID,0,VALID,87.2511,VALID,0.0169808,VALID,20.5115,VALID,126,VALID,0.683949,
2002-01-06, 01:03:00,VALID,918.089,VALID,0,VALID,87.3427,VALID,0.0169808,VALID,20.4919,VALID,101,VALID,1.18729,
2002-01-06, 01:04:00,VALID,918.08,VALID,0,VALID,87.4635,VALID,0.0509425,VALID,20.4795,VALID,130,VALID,0.944922,
2002-01-06, 01:05:00,VALID,918.077,VALID,0,VALID,87.5487,VALID,0.0679233,VALID,20.4631,VALID,138,VALID,1.14309,
2002-01-06, 01:06:00,VALID,918.062,VALID,0,VALID,87.5004,VALID,0.0169808,VALID,20.4633,VALID,122,VALID,1.47389,
2002-01-06, 01:07:00,VALID,918.024,VALID,0,VALID,87.5602,VALID,0,VALID,20.483,VALID,113,VALID,2.30809,
2002-01-06, 01:08:00,VALID,918.003,VALID,0,VALID,87.6695,VALID,0,VALID,20.4534,VALID,139,VALID,1.25521,
2002-01-06, 01:09:00,VALID,917.993,VALID,0,VALID,87.784,VALID,0,VALID,20.4442,VALID,126,VALID,1.86081,
2002-01-06, 01:10:00,VALID,917.979,VALID,0,VALID,87.714,VALID,0.0339617,VALID,20.4472,VALID,152,VALID,1.62274,
2002-01-06, 01:11:00,VALID,917.951,VALID,0,VALID,87.6886,VALID,0.0169808,VALID,20.4407,VALID,149,VALID,1.9584,
2002-01-06, 01:12:00,VALID,917.958,VALID,0,VALID,87.7687,VALID,0.0169808,VALID,20.4412,VALID,144,VALID,1.05781,
2002-01-06, 01:13:00,VALID,917.931,VALID,0,VALID,87.9378,VALID,0.0339617,VALID,20.4281,VALID,130,VALID,1.28505,
2002-01-06, 01:14:00,VALID,917.919,VALID,0,VALID,88.1273,VALID,0.0169808,VALID,20.3855,VALID,131,VALID,2.05243,
2002-01-06, 01:15:00,VALID,917.914,VALID,0,VALID,88.0713,VALID,0.0339617,VALID,20.3793,VALID,132,VALID,2.53103,
2002-01-06, 01:16:00,VALID,917.892,VALID,0,VALID,87.6161,VALID,0,VALID,20.4189,VALID,129,VALID,1.58767,
2002-01-06, 01:17:00,VALID,917.884,VALID,0,VALID,87.4966,VALID,0,VALID,20.4639,VALID,118,VALID,1.46937,
2002-01-06, 01:18:00,VALID,917.867,VALID,0,VALID,87.5525,VALID,0,VALID,20.4832,VALID,122,VALID,1.8625,
2002-01-06, 01:19:00,VALID,917.864,VALID,0,VALID,87.6657,VALID,0.0169808,VALID,20.4633,VALID,152,VALID,2.04728,
2002-01-06, 01:20:00,VALID,917.844,VALID,0,VALID,87.6085,VALID,0,VALID,20.4636,VALID,146,VALID,2.37739,
2002-01-06, 01:21:00,VALID,917.843,VALID,0,VALID,87.5843,VALID,0,VALID,20.4805,VALID,140,VALID,1.44679,
2002-01-06, 01:22:00,VALID,917.831,VALID,0,VALID,87.5907,VALID,0,VALID,20.4671,VALID,131,VALID,1.73355,
2002-01-06, 01:23:00,VALID,917.819,VALID,0,VALID,87.5983,VALID,0,VALID,20.4544,VALID,138,VALID,1.81332,
2002-01-06, 01:24:00,VALID,917.798,VALID,0,VALID,87.5474,VALID,0.0169808,VALID,20.4609,VALID,130,VALID,1.84146,
2002-01-06, 01:25:00,VALID,917.778,VALID,0,VALID,87.4444,VALID,0,VALID,20.4668,VALID,147,VALID,1.87179,
2002-01-06, 01:26:00,VALID,917.776,VALID,0,VALID,87.4737,VALID,-0.0169808,VALID,20.477,VALID,141,VALID,1.82712,
2002-01-06, 01:27:00,VALID,917.772,VALID,0,VALID,87.5551,VALID,0.0169808,VALID,20.4735,VALID,144,VALID,2.04075,
2002-01-06, 01:28:00,VALID,917.758,VALID,0,VALID,87.6225,VALID,0.0169808,VALID,20.4604,VALID,149,VALID,1.96641,
2002-01-06, 01:29:00,VALID,917.748,VALID,0,VALID,87.5106,VALID,0.0169808,VALID,20.4477,VALID,150,VALID,2.64982,
2002-01-06, 01:30:00,VALID,917.74,VALID,0,VALID,87.5195,VALID,0.0169808,VALID,20.4539,VALID,144,VALID,1.57051,
2002-01-06, 01:31:00,VALID,917.734,VALID,0,VALID,87.6428,VALID,0.0169808,VALID,20.4447,VALID,136,VALID,1.50741,
2002-01-06, 01:32:00,VALID,917.739,VALID,0,VALID,87.5919,VALID,0,VALID,20.4318,VALID,153,VALID,2.08141,
2002-01-06, 01:33:00,VALID,917.717,VALID,0,VALID,87.7,VALID,0,VALID,20.4221,VALID,145,VALID,1.41201,
2002-01-06, 01:34:00,VALID,917.717,VALID,0,VALID,87.6797,VALID,0,VALID,20.4219,VALID,147,VALID,1.95137,
2002-01-06, 01:35:00,VALID,917.718,VALID,0,VALID,87.5373,VALID,0,VALID,20.4291,VALID,161,VALID,1.84805,
2002-01-06, 01:36:00,VALID,917.72,VALID,0,VALID,87.3414,VALID,0,VALID,20.4383,VALID,147,VALID,2.26162,
2002-01-06, 01:37:00,VALID,917.705,VALID,0,VALID,87.2944,VALID,0.0849042,VALID,20.4663,VALID,125,VALID,1.52262,
2002-01-06, 01:38:00,VALID,917.697,VALID,0,VALID,87.2982,VALID,0.0849042,VALID,20.4723,VALID,148,VALID,1.33514,
2002-01-06, 01:39:00,VALID,917.667,VALID,0,VALID,87.3541,VALID,0.0679233,VALID,20.4596,VALID,157,VALID,1.66727,
2002-01-06, 01:40:00,VALID,917.632,VALID,0,VALID,87.3173,VALID,0.0679233,VALID,20.4663,VALID,127,VALID,1.5152,
2002-01-06, 01:41:00,VALID,917.642,VALID,0,VALID,87.3452,VALID,0.0679233,VALID,20.4628,VALID,148,VALID,2.22496,
2002-01-06, 01:42:00,VALID,917.601,VALID,0,VALID,87.3758,VALID,0.0509425,VALID,20.4566,VALID,142,VALID,1.91927,
2002-01-06, 01:43:00,VALID,917.571,VALID,0,VALID,87.5538,VALID,0.0509425,VALID,20.4305,VALID,138,VALID,1.56597,
2002-01-06, 01:44:00,VALID,917.58,VALID,0,VALID,87.5957,VALID,0.0339617,VALID,20.392,VALID,146,VALID,2.06484,
2002-01-06, 01:45:00,VALID,917.604,VALID,0,VALID,87.5805,VALID,0.0679233,VALID,20.3729,VALID,143,VALID,1.42525,
2002-01-06, 01:46:00,VALID,917.613,VALID,0,VALID,87.0909,VALID,0.0509425,VALID,20.3659,VALID,138,VALID,1.91366,
2002-01-06, 01:47:00,VALID,917.618,VALID,0,VALID,86.9803,VALID,0.0849042,VALID,20.4109,VALID,147,VALID,1.73972,
2002-01-06, 01:48:00,VALID,917.636,VALID,0,VALID,86.8341,VALID,0.0509425,VALID,20.4574,VALID,125,VALID,1.64825,
2002-01-06, 01:49:00,VALID,917.657,VALID,0,VALID,86.8226,VALID,0.0509425,VALID,20.4631,VALID,130,VALID,1.14844,
2002-01-06, 01:50:00,VALID,917.648,VALID,0,VALID,86.8506,VALID,0.0679233,VALID,20.4663,VALID,121,VALID,1.11318,
2002-01-06, 01:51:00,VALID,917.645,VALID,0,VALID,86.8366,VALID,0.0509425,VALID,20.486,VALID,139,VALID,0.722266,
2002-01-06, 01:52:00,VALID,917.629,VALID,0,VALID,86.9561,VALID,-0.0339617,VALID,20.4743,VALID,132,VALID,1.08914,
2002-01-06, 01:53:00,VALID,917.614,VALID,0,VALID,87.0871,VALID,-0.0169808,VALID,20.4614,VALID,135,VALID,1.43606,
2002-01-06, 01:54:00,VALID,917.61,VALID,0,VALID,87.1838,VALID,-0.0509425,VALID,20.449,VALID,161,VALID,1.46263,
2002-01-06, 01:55:00,VALID,917.578,VALID,0,VALID,87.2461,VALID,-0.0679233,VALID,20.4224,VALID,155,VALID,1.68409,
2002-01-06, 01:56:00,VALID,917.571,VALID,0,VALID,87.2422,VALID,-0.0849042,VALID,20.4234,VALID,155,VALID,1.94853,
2002-01-06, 01:57:00,VALID,917.577,VALID,0,VALID,86.9816,VALID,-0.0679233,VALID,20.4291,VALID,142,VALID,2.41587,
2002-01-06, 01:58:00,VALID,917.568,VALID,0,VALID,86.8188,VALID,-0.0849042,VALID,20.4517,VALID,155,VALID,1.5991,
2002-01-06, 01:59:00,VALID,917.548,VALID,0,VALID,86.8366,VALID,-0.0339617,VALID,20.4611,VALID,145,VALID,1.96832,
2002-01-06, 02:00:00,VALID,917.534,VALID,0,VALID,86.9091,VALID,-0.0339617,VALID,20.4646,VALID,142,VALID,1.44721,
2002-01-06, 02:01:00,VALID,917.519,VALID,0,VALID,86.9752,VALID,-0.0339617,VALID,20.4517,VALID,142,VALID,1.79844,
2002-01-06, 02:02:00,VALID,917.49,VALID,0,VALID,87.0324,VALID,-0.0169808,VALID,20.4355,VALID,149,VALID,1.63322,
2002-01-06, 02:03:00,VALID,917.482,VALID,0,VALID,87.0769,VALID,-0.0679233,VALID,20.4191,VALID,145,VALID,1.95946,
2002-01-06, 02:04:00,VALID,917.476,VALID,0,VALID,87.124,VALID,-0.0509425,VALID,20.4199,VALID,132,VALID,1.90705,
2002-01-06, 02:05:00,VALID,917.441,VALID,0,VALID,87.171,VALID,-0.0169808,VALID,20.4202,VALID,150,VALID,2.11098,
2002-01-06, 02:06:00,VALID,917.426,VALID,0,VALID,87.2308,VALID,-0.0169808,VALID,20.3868,VALID,138,VALID,1.43997,
2002-01-06, 02:07:00,VALID,917.404,VALID,0,VALID,87.3122,VALID,-0.0339617,VALID,20.3776,VALID,140,VALID,1.78315,
2002-01-06, 02:08:00,VALID,917.374,VALID,0,VALID,87.3338,VALID,0.0509425,VALID,20.36,VALID,141,VALID,1.69491,
2002-01-06, 02:09:00,VALID,917.363,VALID,0,VALID,87.3452,VALID,0.0169808,VALID,20.3565,VALID,148,VALID,2.08594,
2002-01-06, 02:10:00,VALID,917.339,VALID,0,VALID,87.3656,VALID,0.0679233,VALID,20.3535,VALID,152,VALID,1.56039,
2002-01-06, 02:11:00,VALID,917.307,VALID,0,VALID,87.3974,VALID,0.0679233,VALID,20.3433,VALID,142,VALID,1.30659,
2002-01-06, 02:12:00,VALID,917.29,VALID,0,VALID,87.377,VALID,0.0509425,VALID,20.3498,VALID,152,VALID,1.47895,
2002-01-06, 02:13:00,VALID,917.265,VALID,0,VALID,87.5029,VALID,0.0849042,VALID,20.3468,VALID,145,VALID,1.76484,
2002-01-06, 02:14:00,VALID,917.265,VALID,0,VALID,87.6809,VALID,0.0339617,VALID,20.3212,VALID,153,VALID,1.97997,
2002-01-06, 02:15:00,VALID,917.267,VALID,0,VALID,87.8056,VALID,0.0679233,VALID,20.2986,VALID,153,VALID,1.76582,
2002-01-06, 02:16:00,VALID,917.256,VALID,0,VALID,87.9187,VALID,0.0169808,VALID,20.2859,VALID,158,VALID,1.95313,
2002-01-06, 02:17:00,VALID,917.265,VALID,0,VALID,88.0535,VALID,0.0509425,VALID,20.2566,VALID,145,VALID,1.76213,
2002-01-06, 02:18:00,VALID,917.277,VALID,0,VALID,88.1184,VALID,0.0339617,VALID,20.2431,VALID,145,VALID,1.97276,
2002-01-06, 02:19:00,VALID,917.274,VALID,0,VALID,88.0904,VALID,0.0339617,VALID,20.2466,VALID,146,VALID,1.59844,
2002-01-06, 02:20:00,VALID,917.271,VALID,0,VALID,88.1489,VALID,0,VALID,20.2501,VALID,150,VALID,2.12739,
2002-01-06, 02:21:00,VALID,917.26,VALID,0,VALID,88.1807,VALID,0.0339617,VALID,20.2434,VALID,144,VALID,1.73923,
2002-01-06, 02:22:00,VALID,917.253,VALID,0,VALID,88.065,VALID,0,VALID,20.2414,VALID,143,VALID,1.89309,
2002-01-06, 02:23:00,VALID,917.279,VALID,0,VALID,88.0103,VALID,0,VALID,20.2613,VALID,139,VALID,1.76065,
2002-01-06, 02:24:00,VALID,917.27,VALID,0,VALID,88.0612,VALID,0,VALID,20.2581,VALID,145,VALID,1.87233,
2002-01-06, 02:25:00,VALID,917.273,VALID,0,VALID,88.051,VALID,-0.0509425,VALID,20.2608,VALID,146,VALID,2.1127,
2002-01-06, 02:26:00,VALID,917.263,VALID,0,VALID,88.084,VALID,-0.0169808,VALID,20.2646,VALID,151,VALID,1.62418,
2002-01-06, 02:27:00,VALID,917.274,VALID,0,VALID,88.1247,VALID,0,VALID,20.2544,VALID,147,VALID,1.69696,
2002-01-06, 02:28:00,VALID,917.262,VALID,0,VALID,88.0535,VALID,-0.0169808,VALID,20.2748,VALID,159,VALID,2.0006,
2002-01-06, 02:29:00,VALID,917.267,VALID,0,VALID,88.1184,VALID,-0.0169808,VALID,20.271,VALID,151,VALID,1.34415,
2002-01-06, 02:30:00,VALID,917.273,VALID,0,VALID,88.1743,VALID,-0.0169808,VALID,20.2514,VALID,140,VALID,1.65892,
2002-01-06, 02:31:00,VALID,917.273,VALID,0,VALID,88.14,VALID,-0.0169808,VALID,20.2616,VALID,135,VALID,1.51049,
2002-01-06, 02:32:00,VALID,917.289,VALID,0,VALID,88.2761,VALID,-0.0339617,VALID,20.2681,VALID,163,VALID,1.30684,
2002-01-06, 02:33:00,VALID,917.288,VALID,0,VALID,88.2341,VALID,-0.0169808,VALID,20.2551,VALID,142,VALID,2.17388,
2002-01-06, 02:34:00,VALID,917.273,VALID,0,VALID,88.1514,VALID,0,VALID,20.2616,VALID,160,VALID,1.89358,
2002-01-06, 02:35:00,VALID,917.277,VALID,0,VALID,88.1387,VALID,0,VALID,20.2646,VALID,152,VALID,2.72636,
2002-01-06, 02:36:00,VALID,917.266,VALID,0,VALID,88.1197,VALID,-0.0169808,VALID,20.2541,VALID,144,VALID,2.35135,
2002-01-06, 02:37:00,VALID,917.251,VALID,0,VALID,88.1311,VALID,0.101885,VALID,20.2698,VALID,153,VALID,2.00501,
2002-01-06, 02:38:00,VALID,917.238,VALID,0,VALID,88.0739,VALID,0.101885,VALID,20.2598,VALID,151,VALID,2.14535,
2002-01-06, 02:39:00,VALID,917.25,VALID,0,VALID,87.9696,VALID,0.101885,VALID,20.2891,VALID,152,VALID,2.01473,
2002-01-06, 02:40:00,VALID,917.231,VALID,0,VALID,87.906,VALID,0.101885,VALID,20.2851,VALID,155,VALID,2.72796,
2002-01-06, 02:41:00,VALID,917.226,VALID,0,VALID,87.9467,VALID,0.0849042,VALID,20.2916,VALID,153,VALID,1.71463,
2002-01-06, 02:42:00,VALID,917.218,VALID,0,VALID,87.8933,VALID,0.101885,VALID,20.3015,VALID,145,VALID,2.14865,
2002-01-06, 02:43:00,VALID,917.212,VALID,0,VALID,87.8361,VALID,0.0849042,VALID,20.3015,VALID,144,VALID,2.12767,
2002-01-06, 02:44:00,VALID,917.224,VALID,0,VALID,87.714,VALID,0.101885,VALID,20.308,VALID,132,VALID,1.36308,
2002-01-06, 02:45:00,VALID,917.231,VALID,0,VALID,87.2893,VALID,0.101885,VALID,20.3468,VALID,107,VALID,2.23209,
2002-01-06, 02:46:00,VALID,917.21,VALID,0,VALID,87.0947,VALID,0.0679233,VALID,20.3952,VALID,122,VALID,2.13502,
2002-01-06, 02:47:00,VALID,917.196,VALID,0,VALID,87.2613,VALID,0.0849042,VALID,20.4213,VALID,142,VALID,2.48257,
2002-01-06, 02:48:00,VALID,917.189,VALID,0,VALID,87.3185,VALID,0.0679233,VALID,20.4246,VALID,124,VALID,2.96748,
2002-01-06, 02:49:00,VALID,917.154,VALID,0,VALID,87.3084,VALID,0.101885,VALID,20.4275,VALID,151,VALID,2.23047,
2002-01-06, 02:50:00,VALID,917.115,VALID,0,VALID,87.3376,VALID,0.101885,VALID,20.4047,VALID,155,VALID,2.26425,
2002-01-06, 02:51:00,VALID,917.104,VALID,0,VALID,87.3516,VALID,0.101885,VALID,20.4017,VALID,150,VALID,2.32676,
2002-01-06, 02:52:00,VALID,917.093,VALID,0,VALID,87.4444,VALID,-0.0339617,VALID,20.3839,VALID,146,VALID,2.05509,
2002-01-06, 02:53:00,VALID,917.096,VALID,0,VALID,87.6034,VALID,-0.0169808,VALID,20.3615,VALID,148,VALID,1.8896,
2002-01-06, 02:54:00,VALID,917.09,VALID,0,VALID,87.6835,VALID,0,VALID,20.3386,VALID,135,VALID,1.54482,
2002-01-06, 02:55:00,VALID,917.079,VALID,0,VALID,87.7852,VALID,-0.0169808,VALID,20.3197,VALID,142,VALID,1.60859,
2002-01-06, 02:56:00,VALID,917.056,VALID,0,VALID,87.9175,VALID,0,VALID,20.2996,VALID,134,VALID,2.02676,
2002-01-06, 02:57:00,VALID,917.042,VALID,0,VALID,88.0078,VALID,0,VALID,20.3001,VALID,125,VALID,1.73337,
2002-01-06, 02:58:00,VALID,917.042,VALID,0,VALID,88.0968,VALID,0.0339617,VALID,20.2936,VALID,122,VALID,2.08265,
2002-01-06, 02:59:00,VALID,917.044,VALID,0,VALID,88.229,VALID,0,VALID,20.2675,VALID,107,VALID,1.17949,
2002-01-06, 03:00:00,VALID,917.023,VALID,0,VALID,88.3218,VALID,0,VALID,20.2352,VALID,121,VALID,1.55168,
2002-01-06, 03:01:00,VALID,917.019,VALID,0,VALID,88.3943,VALID,-0.0169808,VALID,20.2159,VALID,121,VALID,1.15773,
2002-01-06, 03:02:00,VALID,917.002,VALID,0,VALID,88.4884,VALID,-0.0169808,VALID,20.1898,VALID,124,VALID,1.47296,
2002-01-06, 03:03:00,VALID,916.966,VALID,0,VALID,88.6842,VALID,0,VALID,20.1577,VALID,145,VALID,1.58051,
2002-01-06, 03:04:00,VALID,916.964,VALID,0,VALID,88.8483,VALID,-0.0339617,VALID,20.1224,VALID,121,VALID,2.03125,
2002-01-06, 03:05:00,VALID,916.938,VALID,0,VALID,88.8597,VALID,-0.0169808,VALID,20.0993,VALID,132,VALID,2.14492,
2002-01-06, 03:06:00,VALID,916.936,VALID,0,VALID,88.7288,VALID,0,VALID,20.1296,VALID,123,VALID,2.41554,
2002-01-06, 03:07:00,VALID,916.926,VALID,0,VALID,88.6842,VALID,-0.0169808,VALID,20.1415,VALID,138,VALID,1.95793,
2002-01-06, 03:08:00,VALID,916.908,VALID,0,VALID,88.7415,VALID,0,VALID,20.1485,VALID,143,VALID,2.46505,
2002-01-06, 03:09:00,VALID,916.904,VALID,0,VALID,88.7453,VALID,-0.0339617,VALID,20.1455,VALID,135,VALID,1.59508,
2002-01-06, 03:10:00,VALID,916.896,VALID,0,VALID,88.8788,VALID,-0.0339617,VALID,20.1296,VALID,138,VALID,1.61098,
2002-01-06, 03:11:00,VALID,916.891,VALID,0,VALID,89.0085,VALID,-0.0339617,VALID,20.1038,VALID,137,VALID,2.02766,
2002-01-06, 03:12:00,VALID,916.866,VALID,0,VALID,89.0072,VALID,0,VALID,20.0871,VALID,144,VALID,2.09355,
2002-01-06, 03:13:00,VALID,916.842,VALID,0,VALID,88.9856,VALID,0,VALID,20.0933,VALID,143,VALID,1.8095,
2002-01-06, 03:14:00,VALID,916.84,VALID,0,VALID,88.9843,VALID,-0.0169808,VALID,20.0998,VALID,123,VALID,1.45806,
2002-01-06, 03:15:00,VALID,916.821,VALID,0,VALID,89.0784,VALID,0.0169808,VALID,20.0737,VALID,131,VALID,1.22762,
2002-01-06, 03:16:00,VALID,916.834,VALID,0,VALID,89.2247,VALID,-0.0169808,VALID,20.0578,VALID,130,VALID,1.66667,
2002-01-06, 03:17:00,VALID,916.813,VALID,0,VALID,89.2361,VALID,0,VALID,20.0449,VALID,147,VALID,1.71852,
2002-01-06, 03:18:00,VALID,916.818,VALID,0,VALID,88.9818,VALID,-0.0169808,VALID,20.0516,VALID,151,VALID,1.7518,
2002-01-06, 03:19:00,VALID,916.794,VALID,0,VALID,88.8839,VALID,-0.0169808,VALID,20.064,VALID,117,VALID,2.05859,
2002-01-06, 03:20:00,VALID,916.785,VALID,0,VALID,88.6079,VALID,-0.0169808,VALID,20.1299,VALID,131,VALID,1.6556,
2002-01-06, 03:21:00,VALID,916.779,VALID,0,VALID,88.5965,VALID,-0.0169808,VALID,20.1619,VALID,130,VALID,1.74282,
2002-01-06, 03:22:00,VALID,916.758,VALID,0,VALID,88.5952,VALID,0.0509425,VALID,20.1467,VALID,140,VALID,2.0375,
2002-01-06, 03:23:00,VALID,916.761,VALID,0,VALID,88.5126,VALID,0.0339617,VALID,20.1631,VALID,143,VALID,2.44963,
2002-01-06, 03:24:00,VALID,916.738,VALID,0,VALID,88.4643,VALID,0.0509425,VALID,20.1696,VALID,157,VALID,2.28252,
2002-01-06, 03:25:00,VALID,916.713,VALID,0,VALID,88.3981,VALID,0.0169808,VALID,20.1733,VALID,153,VALID,2.3155,
2002-01-06, 03:26:00,VALID,916.69,VALID,0,VALID,88.1756,VALID,0.0339617,VALID,20.1957,VALID,147,VALID,2.34836,
2002-01-06, 03:27:00,VALID,916.699,VALID,0,VALID,88.0713,VALID,0.0509425,VALID,20.2215,VALID,143,VALID,2.00041,
2002-01-06, 03:28:00,VALID,916.704,VALID,0,VALID,87.9009,VALID,0,VALID,20.2412,VALID,140,VALID,1.85262,
2002-01-06, 03:29:00,VALID,916.73,VALID,0,VALID,87.8679,VALID,0.0169808,VALID,20.2571,VALID,148,VALID,1.79067,
2002-01-06, 03:30:00,VALID,916.742,VALID,0,VALID,87.9175,VALID,0.0339617,VALID,20.2668,VALID,154,VALID,1.75169,
2002-01-06, 03:31:00,VALID,916.738,VALID,0,VALID,88.0319,VALID,0.0509425,VALID,20.27,VALID,145,VALID,1.15583,
2002-01-06, 03:32:00,VALID,916.746,VALID,0,VALID,88.112,VALID,0.0339617,VALID,20.2471,VALID,105,VALID,1.92721,
2002-01-06, 03:33:00,VALID,916.748,VALID,0,VALID,88.079,VALID,0.0339617,VALID,20.2447,VALID,144,VALID,1.33464,